User: anonymous   Login
Location: Unspecified
(0.0000°N, 0.0000°E)
Time: 19:25:30
(UTC+00:00)
Language:

STARLINK-30452 - Orbit

View from above orbital plane
View from above orbital plane
View from above satellite
View from above satellite

Ground track
Ground track

The orbit is defined by the following mean orbital elements,

1 57925U          26144.67252183 +.00000000 +00000-0 -22034-4 0 00008
2 57925  43.0029 256.5169 0001481 270.9315  89.1367 15.27571239    09
Epoch (UTC): 24 May 2026 16:08:25
Eccentricity: 0.0001481
inclination: 43.0029°
perigee height: 482 km
apogee height: 484 km
right ascension of ascending node: 256.5169°
argument of perigee: 270.9315°
revolutions per day: 15.27571239
mean anomaly at epoch: 89.1367°

The dashed part of the orbit path shows where the satellite is in the earth's shadow,  

DLR